EW9392 Weather Reports


Display with metric or nautical units.
time (UTC)temp
F
wind
direction
speed
MPH
gust
MPH
rain 1hr
in
rain 24hr
in
rain mn
in
humidity
%
barometer
mb
20210305191543 68 104 5.0 11.0 0.00 0.00 0.00 58 1014.5
20210305191038 68 82 4.0 13.0 0.00 0.00 0.00 58 1014.5
20210305190546 68 354 6.0 13.0 0.00 0.00 0.00 58 1014.5
20210305190101 68 51 4.0 13.0 0.00 0.00 0.00 59 1014.8
20210305185837 68 254 4.0 11.0 0.00 0.00 0.00 60 1014.8
20210305185314 69 96 4.0 10.0 0.00 0.00 0.00 59 1014.8
20210305184604 69 313 4.0 10.0 0.00 0.00 0.00 57 1014.8
20210305184049 69 65 3.0 12.0 0.00 0.00 0.00 59 1014.9
20210305183542 69 71 5.0 12.0 0.00 0.00 0.00 57 1014.9
20210305183110 69 68 3.0 11.0 0.00 0.00 0.00 58 1014.8
20210305182737 69 92 4.0 11.0 0.00 0.00 0.00 57 1015.0
20210305182148 70 78 3.0 9.0 0.00 0.00 0.00 58 1015.0
20210305181543 70 264 3.0 10.0 0.00 0.00 0.00 59 1014.9
20210305181028 70 53 3.0 10.0 0.00 0.00 0.00 56 1015.0
20210305180532 70 295 3.0 10.0 0.00 0.00 0.00 56 1015.1
20210305180153 70 83 3.0 9.0 0.00 0.00 0.00 56 1015.3
20210305175927 70 83 4.0 9.0 0.00 0.00 0.00 56 1015.3
20210305175533 70 333 3.0 9.0 0.00 0.00 0.00 54 1015.3
20210305174653 70 56 3.0 9.0 0.00 0.00 0.00 54 1015.3
20210305174102 70 338 4.0 11.0 0.00 0.00 0.00 54 1015.4
20210305173530 70 47 4.0 11.0 0.00 0.00 0.00 54 1015.4
20210305173116 70 83 4.0 9.0 0.00 0.00 0.00 52 1015.5
20210305172847 70 100 3.0 9.0 0.00 0.00 0.00 50 1015.5
20210305172334 70 314 3.0 9.0 0.00 0.00 0.00 51 1015.4
20210305171558 71 81 3.0 9.0 0.00 0.00 0.00 52 1015.5
20210305171042 71 65 3.0 9.0 0.00 0.00 0.00 52 1015.5
20210305170535 71 359 3.0 8.0 0.00 0.00 0.00 51 1015.4
20210305170153 71 83 2.0 8.0 0.00 0.00 0.00 51 1015.4
20210305165936 71 135 4.0 10.0 0.00 0.00 0.00 50 1015.6
20210305165547 71 79 3.0 10.0 0.00 0.00 0.00 49 1015.7
20210305164552 72 343 4.0 9.0 0.00 0.00 0.00 49 1015.8
20210305164301 72 77 4.0 9.0 0.00 0.00 0.00 46 1015.7
20210305164102 73 74 3.0 9.0 0.00 0.00 0.00 46 1015.7
20210305163827 74 181 2.0 8.0 0.00 0.00 0.00 43 1015.7
20210305163317 73 112 1.0 8.0 0.00 0.00 0.00 37 1015.8
20210305162605 73 299 2.0 5.0 0.00 0.00 0.00 35 1015.8
20210305161532 73 320 0.0 4.0 0.00 0.00 0.00 41 1015.7
20210305161037 73 339 1.0 4.0 0.00 0.00 0.00 41 1015.7
20210305160532 73 318 1.0 3.0 0.00 0.00 0.00 41 1015.8
20210305160104 72 315 1.0 4.0 0.00 0.00 0.00 41 1015.7
20210305155737 72 340 1.0 4.0 0.00 0.00 0.00 44 1015.8
20210305155137 71 48 0.0 4.0 0.00 0.00 0.00 43 1015.7
20210305154541 71 80 1.0 4.0 0.00 0.00 0.00 45 1015.7
20210305154036 71 345 0.0 3.0 0.00 0.00 0.00 49 1015.6
20210305153524 70 336 0.0 4.0 0.00 0.00 0.00 50 1015.7
20210305153143 70 354 1.0 4.0 0.00 0.00 0.00 50 1015.7
20210305153001 69 321 0.0 4.0 0.00 0.00 0.00 52 1015.9
20210305152405 68 339 0.0 3.0 0.00 0.00 0.00 54 1016.0
20210305151518 68 314 1.0 4.0 0.00 0.00 0.00 55 1015.8
20210305150602 66 326 2.0 5.0 0.00 0.00 0.00 58 1016.0
20210305150220 66 310 0.0 6.0 0.00 0.00 0.00 60 1015.8
20210305145859 65 307 2.0 6.0 0.00 0.00 0.00 60 1015.8
20210305145618 65 301 1.0 6.0 0.00 0.00 0.00 60 1015.8
20210305144909 64 307 2.0 5.0 0.00 0.00 0.00 62 1015.9
20210305144549 64 303 2.0 5.0 0.00 0.00 0.00 62 1016.0
20210305144115 64 299 1.0 5.0 0.00 0.00 0.00 64 1015.9
20210305143551 63 318 1.0 6.0 0.00 0.00 0.00 64 1015.9
20210305143153 63 305 2.0 6.0 0.00 0.00 0.00 65 1015.8
20210305142812 62 304 2.0 8.0 0.00 0.00 0.00 66 1015.9
20210305142223 62 310 2.0 8.0 0.00 0.00 0.00 64 1015.9
20210305141619 62 297 2.0 6.0 0.00 0.00 0.00 67 1015.9
20210305141052 61 331 1.0 6.0 0.00 0.00 0.00 68 1015.8
20210305140552 60 211 1.0 10.0 0.00 0.00 0.00 68 1015.8
20210305140341 60 309 3.0 10.0 0.00 0.00 0.00 68 1015.8
20210305140100 59 313 3.0 9.0 0.00 0.00 0.00 69 1015.8
20210305135521 59 293 4.0 9.0 0.00 0.00 0.00 70 1015.8
20210305134648 58 310 3.0 10.0 0.00 0.00 0.00 70 1015.6
20210305134041 58 274 4.0 10.0 0.00 0.00 0.00 70 1015.7
20210305133056 57 305 5.0 11.0 0.00 0.00 0.00 72 1015.6
20210305132857 57 273 3.0 9.0 0.00 0.00 0.00 73 1015.6
20210305132446 56 253 4.0 9.0 0.00 0.00 0.00 74 1015.6
20210305131555 56 308 3.0 8.0 0.00 0.00 0.00 75 1015.5
20210305131039 55 303 2.0 9.0 0.00 0.00 0.00 76 1015.4
20210305130613 55 310 2.0 11.0 0.00 0.00 0.00 77 1015.6
20210305130331 54 280 4.0 11.0 0.00 0.00 0.00 78 1015.6
20210305130024 53 281 3.0 11.0 0.00 0.00 0.00 79 1015.5
20210305125408 53 326 5.0 11.0 0.00 0.00 0.00 79 1015.4
20210305124527 53 266 4.0 9.0 0.00 0.00 0.00 79 1015.3
20210305124030 53 316 4.0 9.0 0.00 0.00 0.00 79 1015.4
20210305123609 52 301 5.0 10.0 0.00 0.00 0.00 80 1015.2
20210305123443 52 286 6.0 11.0 0.00 0.00 0.00 80 1015.2
20210305123148 51 292 6.0 11.0 0.00 0.00 0.00 79 1015.1
20210305122627 51 294 5.0 10.0 0.00 0.00 0.00 79 1015.1
20210305121527 51 291 5.0 9.0 0.00 0.00 0.00 78 1015.2
20210305121029 51 302 5.0 10.0 0.00 0.00 0.00 78 1015.1
20210305120526 51 295 7.0 10.0 0.00 0.00 0.00 77 1015.1
20210305120025 51 303 6.0 11.0 0.00 0.00 0.00 77 1015.1
20210305115906 51 318 6.0 11.0 0.00 0.00 0.00 76 1015.1
20210305115410 51 294 6.0 11.0 0.00 0.00 0.00 76 1015.2
20210305114518 51 292 5.0 10.0 0.00 0.00 0.00 75 1015.2
20210305114020 51 276 5.0 11.0 0.00 0.00 0.00 74 1015.1
20210305113521 52 305 7.0 11.0 0.00 0.00 0.00 74 1015.1
20210305113052 51 286 7.0 12.0 0.00 0.00 0.00 74 1014.9
20210305112401 52 299 8.0 11.0 0.00 0.00 0.00 73 1015.0
20210305111638 52 308 8.0 11.0 0.00 0.00 0.00 72 1015.0
20210305111101 52 297 8.0 11.0 0.00 0.00 0.00 72 1014.9
20210305110558 52 287 8.0 12.0 0.00 0.00 0.00 72 1014.8
20210305110204 52 283 7.0 11.0 0.00 0.00 0.00 73 1014.6
20210305105947 52 311 7.0 11.0 0.00 0.00 0.00 73 1014.5
20210305104602 52 314 6.0 11.0 0.00 0.00 0.00 73 1014.5
20210305104101 52 295 7.0 12.0 0.00 0.00 0.00 74 1014.5
20210305103555 52 304 7.0 12.0 0.00 0.00 0.00 74 1014.5
20210305103203 52 299 9.0 12.0 0.00 0.00 0.00 75 1014.4
20210305102754 52 297 8.0 11.0 0.00 0.00 0.00 75 1014.4
20210305102256 53 308 7.0 11.0 0.00 0.00 0.00 75 1014.4
20210305101645 53 288 7.0 10.0 0.00 0.00 0.00 74 1014.4
20210305101102 53 316 4.0 11.0 0.00 0.00 0.00 74 1014.3
20210305100553 53 301 6.0 11.0 0.00 0.00 0.00 74 1014.3
20210305100228 53 315 5.0 10.0 0.00 0.00 0.00 73 1014.3
20210305095925 53 299 5.0 10.0 0.00 0.00 0.00 73 1014.3
20210305095458 53 305 5.0 9.0 0.00 0.00 0.00 72 1014.2
20210305094639 53 320 3.0 10.0 0.00 0.00 0.00 72 1014.3
20210305094053 53 303 5.0 10.0 0.00 0.00 0.00 72 1014.2
20210305093551 53 296 3.0 8.0 0.00 0.00 0.00 72 1014.2
20210305093159 53 303 5.0 10.0 0.00 0.00 0.00 72 1014.0
20210305092825 53 297 3.0 9.0 0.00 0.00 0.00 72 1014.0
20210305092456 53 297 5.0 9.0 0.00 0.00 0.00 73 1014.1
20210305091702 53 328 5.0 10.0 0.00 0.00 0.00 73 1014.2
20210305091049 53 310 6.0 10.0 0.00 0.00 0.00 74 1014.3
20210305090603 53 308 6.0 9.0 0.00 0.00 0.00 74 1014.2
20210305090155 54 291 4.0 9.0 0.00 0.00 0.00 75 1014.1
20210305085755 53 306 3.0 9.0 0.00 0.00 0.00 75 1014.3
20210305085339 53 311 6.0 9.0 0.00 0.00 0.00 75 1014.2
20210305084909 53 300 5.0 9.0 0.00 0.00 0.00 75 1014.2
20210305084109 53 308 4.0 9.0 0.00 0.00 0.00 76 1014.3
20210305083550 53 300 6.0 9.0 0.00 0.00 0.00 76 1014.2
20210305083139 53 316 4.0 11.0 0.00 0.00 0.00 76 1014.2
20210305082917 53 314 4.0 11.0 0.00 0.00 0.00 76 1014.3
20210305082448 53 305 5.0 9.0 0.00 0.00 0.00 77 1014.3
20210305081621 53 273 4.0 9.0 0.00 0.00 0.00 77 1014.2
20210305081049 53 292 6.0 9.0 0.00 0.00 0.00 78 1014.3
20210305080553 53 277 5.0 10.0 0.00 0.00 0.00 78 1014.3
20210305080133 53 306 7.0 10.0 0.00 0.00 0.00 79 1014.2
20210305075933 53 298 5.0 9.0 0.00 0.00 0.00 79 1014.3
20210305075612 53 295 5.0 8.0 0.00 0.00 0.00 79 1014.3
20210305074650 53 297 4.0 9.0 0.00 0.00 0.00 79 1014.4
20210305074047 53 268 6.0 9.0 0.00 0.00 0.00 79 1014.4
20210305073547 53 299 4.0 9.0 0.00 0.00 0.00 79 1014.3
20210305073119 52 297 4.0 9.0 0.00 0.00 0.00 79 1014.4
20210305072827 52 303 7.0 10.0 0.00 0.00 0.00 79 1014.6
20210305072339 52 291 4.0 11.0 0.00 0.00 0.00 79 1014.7
20210305071634 53 307 6.0 10.0 0.00 0.00 0.00 79 1014.7
20210305071040 53 307 7.0 10.0 0.00 0.00 0.00 80 1014.6
20210305070541 53 300 6.0 11.0 0.00 0.00 0.00 80 1014.7
20210305070153 53 294 7.0 11.0 0.00 0.00 0.00 81 1014.7
20210305065838 53 307 7.0 11.0 0.00 0.00 0.00 81 1014.8
20210305065341 53 313 6.0 10.0 0.00 0.00 0.00 82 1014.9
20210305064602 53 277 6.0 11.0 0.00 0.00 0.00 82 1014.9
20210305064044 53 287 6.0 11.0 0.00 0.00 0.00 81 1014.9
20210305063539 53 282 7.0 11.0 0.00 0.00 0.00 82 1014.9
20210305063147 53 317 5.0 10.0 0.00 0.00 0.00 82 1014.9
20210305062944 52 298 4.0 9.0 0.00 0.00 0.00 81 1014.9
20210305062550 52 279 4.0 9.0 0.00 0.00 0.00 81 1014.9
20210305061637 52 330 2.0 9.0 0.00 0.00 0.00 81 1014.9
20210305061030 52 324 2.0 6.0 0.00 0.00 0.00 81 1015.0
20210305060530 52 326 3.0 10.0 0.00 0.00 0.00 81 1015.0
20210305060112 52 280 3.0 10.0 0.00 0.00 0.00 81 1015.0
20210305055843 52 311 2.0 5.0 0.00 0.00 0.00 81 1015.0
20210305055236 53 284 2.0 8.0 0.00 0.00 0.00 81 1015.0
20210305054607 53 313 2.0 6.0 0.00 0.00 0.00 81 1014.9
20210305054029 53 287 3.0 7.0 0.00 0.00 0.00 81 1014.9
20210305053528 53 249 3.0 7.0 0.00 0.00 0.00 81 1014.9
20210305053049 53 313 3.0 7.0 0.00 0.00 0.00 81 1014.9
20210305052809 53 253 3.0 7.0 0.00 0.00 0.00 81 1015.1
20210305052221 53 253 2.0 7.0 0.00 0.00 0.00 81 1015.1
20210305051547 53 320 2.0 7.0 0.00 0.00 0.00 80 1015.2
20210305051044 53 291 2.0 7.0 0.00 0.00 0.00 80 1015.2
20210305050530 53 305 3.0 6.0 0.00 0.00 0.00 80 1015.1
20210305050027 53 287 1.0 5.0 0.00 0.00 0.00 80 1015.2
20210305045819 54 237 3.0 5.0 0.00 0.00 0.00 79 1015.2
20210305045344 54 359 2.0 6.0 0.00 0.00 0.00 79 1015.1
20210305044536 54 293 2.0 6.0 0.00 0.00 0.00 78 1015.0
20210305044032 55 256 1.0 4.0 0.00 0.00 0.00 78 1015.0
20210305043543 55 280 2.0 3.0 0.00 0.00 0.00 77 1014.9
20210305043119 55 282 1.0 3.0 0.00 0.00 0.00 76 1015.0
20210305042921 56 288 0.0 3.0 0.00 0.00 0.00 76 1015.0
20210305042318 56 354 0.0 0.0 0.00 0.00 0.00 76 1014.9
20210305041541 56 359 0.0 0.0 0.00 0.00 0.00 76 1015.1
20210305041043 57 359 0.0 0.0 0.00 0.00 0.00 76 1015.1
20210305040540 57 359 0.0 0.0 0.00 0.00 0.00 76 1015.1
20210305040300 58 359 0.0 0.0 0.00 0.00 0.00 75 1015.2
20210305040126 58 8 0.0 0.0 0.00 0.00 0.00 75 1015.1
20210305035918 59 8 0.0 0.0 0.00 0.00 0.00 75 1015.2
20210305034644 59 8 0.0 0.0 0.00 0.00 0.00 74 1015.2
20210305034037 60 8 0.0 0.0 0.00 0.00 0.00 75 1015.1
20210305033525 60 8 0.0 0.0 0.00 0.00 0.00 75 1015.1
20210305033102 60 4 0.0 0.0 0.00 0.00 0.00 75 1015.1
20210305032621 60 4 0.0 2.0 0.00 0.00 0.00 75 1015.0
20210305032120 60 4 0.0 4.0 0.00 0.00 0.00 75 1014.9
20210305031525 60 4 0.0 4.0 0.00 0.00 0.00 74 1014.9
20210305031035 60 354 1.0 4.0 0.00 0.00 0.00 74 1014.8
20210305030528 60 35 0.0 4.0 0.00 0.00 0.00 74 1014.9
20210305030104 60 14 0.0 4.0 0.00 0.00 0.00 74 1014.9
20210305025927 60 43 0.0 2.0 0.00 0.00 0.00 73 1014.9
20210305025435 60 39 0.0 2.0 0.00 0.00 0.00 73 1014.9
20210305024532 60 73 0.0 2.0 0.00 0.00 0.00 73 1014.9
20210305024029 60 73 0.0 3.0 0.00 0.00 0.00 73 1014.9
20210305023528 60 73 0.0 3.0 0.00 0.00 0.00 73 1014.9
20210305023032 60 53 1.0 3.0 0.00 0.00 0.00 72 1014.8
20210305022852 60 4 0.0 3.0 0.00 0.00 0.00 72 1014.8
20210305022148 61 22 0.0 5.0 0.00 0.00 0.00 72 1014.8
20210305021650 61 68 1.0 5.0 0.00 0.00 0.00 72 1014.7
20210305021027 61 79 2.0 4.0 0.00 0.00 0.00 72 1014.6
20210305020522 61 62 1.0 3.0 0.00 0.00 0.00 71 1014.5
20210305020135 61 57 1.0 3.0 0.00 0.00 0.00 71 1014.6
20210305015857 61 70 0.0 4.0 0.00 0.00 0.00 71 1014.6
20210305015219 61 67 2.0 5.0 0.00 0.00 0.00 71 1014.5
20210305014549 61 70 2.0 5.0 0.00 0.00 0.00 71 1014.6
20210305014032 61 13 0.0 2.0 0.00 0.00 0.00 71 1014.6
20210305013524 61 8 0.0 3.0 0.00 0.00 0.00 70 1014.6
20210305013152 61 4 0.0 4.0 0.00 0.00 0.00 70 1014.6
20210305012900 61 349 0.0 4.0 0.00 0.00 0.00 69 1014.6
20210305012305 61 14 1.0 3.0 0.00 0.00 0.00 69 1014.6
20210305011540 61 57 1.0 3.0 0.00 0.00 0.00 69 1014.6
20210305011030 61 35 0.0 3.0 0.00 0.00 0.00 68 1014.5
20210305010525 61 44 0.0 0.0 0.00 0.00 0.00 68 1014.4
20210305010115 61 43 0.0 2.0 0.00 0.00 0.00 67 1014.4
20210305005820 61 37 1.0 3.0 0.00 0.00 0.00 67 1014.3
20210305005339 61 37 0.0 2.0 0.00 0.00 0.00 67 1014.4
20210305004550 61 36 0.0 3.0 0.00 0.00 0.00 67 1014.3
20210305004030 62 36 1.0 3.0 0.00 0.00 0.00 66 1014.4
20210305003524 62 39 0.0 3.0 0.00 0.00 0.00 66 1014.4
20210305003102 62 39 0.0 4.0 0.00 0.00 0.00 66 1014.4
20210305002751 62 19 0.0 4.0 0.00 0.00 0.00 65 1014.4
20210305002239 62 55 1.0 4.0 0.00 0.00 0.00 65 1014.4
20210305001533 62 35 1.0 4.0 0.00 0.00 0.00 64 1014.4
20210305001025 62 304 1.0 3.0 0.00 0.00 0.00 64 1014.4
20210305000656 62 4 1.0 5.0 0.00 0.00 0.00 64 1014.4
20210305000022 62 63 1.0 4.0 0.00 0.00 0.00 62 1014.3
20210304235425 62 340 1.0 3.0 0.00 0.00 0.00 61 1014.3
20210304234541 62 320 1.0 3.0 0.00 0.00 0.00 61 1014.2
20210304234024 62 50 1.0 3.0 0.00 0.00 0.00 60 1014.2
20210304233531 63 34 1.0 5.0 0.00 0.00 0.00 60 1014.1
20210304233220 63 91 2.0 5.0 0.00 0.00 0.00 60 1014.1
20210304233029 63 97 2.0 5.0 0.00 0.00 0.00 59 1014.0
20210304232430 63 77 3.0 5.0 0.00 0.00 0.00 57 1014.0
20210304231522 63 68 2.0 5.0 0.00 0.00 0.00 58 1014.0
20210304231028 63 139 1.0 6.0 0.00 0.00 0.00 58 1013.9
20210304230527 63 71 3.0 9.0 0.00 0.00 0.00 58 1013.8
20210304230136 64 87 3.0 9.0 0.00 0.00 0.00 57 1013.7
20210304225939 64 104 4.0 8.0 0.00 0.00 0.00 56 1013.6
20210304225236 64 354 2.0 9.0 0.00 0.00 0.00 57 1013.7
20210304224542 64 80 3.0 9.0 0.00 0.00 0.00 55 1013.6
20210304224024 64 57 3.0 9.0 0.00 0.00 0.00 55 1013.6
20210304223527 64 75 4.0 10.0 0.00 0.00 0.00 55 1013.6
20210304223139 65 68 5.0 10.0 0.00 0.00 0.00 54 1013.5
20210304222837 65 85 3.0 10.0 0.00 0.00 0.00 55 1013.6
20210304222136 65 21 4.0 9.0 0.00 0.00 0.00 55 1013.6
20210304221544 66 35 4.0 10.0 0.00 0.00 0.00 55 1013.7
20210304221030 66 102 3.0 10.0 0.00 0.00 0.00 55 1013.5
20210304220519 66 91 4.0 9.0 0.00 0.00 0.00 54 1013.6
20210304220225 66 85 2.0 9.0 0.00 0.00 0.00 54 1013.6
20210304220054 66 319 3.0 9.0 0.00 0.00 0.00 54 1013.7
20210304215522 66 354 2.0 8.0 0.00 0.00 0.00 53 1013.7
20210304214542 66 71 4.0 12.0 0.00 0.00 0.00 53 1013.7
20210304214037 67 31 3.0 12.0 0.00 0.00 0.00 53 1013.9
20210304213528 67 115 3.0 9.0 0.00 0.00 0.00 53 1014.0
20210304213029 67 345 3.0 10.0 0.00 0.00 0.00 52 1014.0
20210304212827 67 81 3.0 9.0 0.00 0.00 0.00 52 1014.0
20210304212201 67 50 4.0 9.0 0.00 0.00 0.00 51 1013.9
20210304211528 67 91 4.0 9.0 0.00 0.00 0.00 50 1013.9
20210304211030 67 252 2.0 11.0 0.00 0.00 0.00 50 1013.9
20210304210518 67 66 4.0 11.0 0.00 0.00 0.00 51 1013.9
20210304210023 67 312 5.0 10.0 0.00 0.00 0.00 50 1013.9
20210304205856 68 75 3.0 9.0 0.00 0.00 0.00 50 1013.9
20210304205339 68 4 4.0 10.0 0.00 0.00 0.00 50 1013.9
20210304204540 68 4 3.0 10.0 0.00 0.00 0.00 52 1013.9
20210304204029 67 285 3.0 9.0 0.00 0.00 0.00 52 1013.9
20210304203645 67 4 4.0 8.0 0.00 0.00 0.00 52 1013.8
20210304203354 67 81 3.0 10.0 0.00 0.00 0.00 53 1013.7
20210304203123 67 93 3.0 11.0 0.00 0.00 0.00 53 1013.7
20210304202604 67 67 4.0 11.0 0.00 0.00 0.00 53 1013.7
20210304201558 67 293 3.0 10.0 0.00 0.00 0.00 54 1013.7
20210304201019 67 336 3.0 12.0 0.00 0.00 0.00 53 1013.7
20210304200519 67 4 6.0 12.0 0.00 0.00 0.00 52 1013.7
20210304200435 67 58 4.0 12.0 0.00 0.00 0.00 53 1013.7
20210304195540 68 88 3.0 10.0 0.00 0.00 0.00 53 1013.9
20210304194642 68 310 4.0 10.0 0.00 0.00 0.00 53 1013.8
20210304194114 67 62 3.0 10.0 0.00 0.00 0.00 54 1013.7
20210304193600 67 98 2.0 11.0 0.00 0.00 0.00 55 1013.7
20210304193324 67 337 5.0 13.0 0.00 0.00 0.00 55 1013.9
20210304193035 67 264 5.0 13.0 0.00 0.00 0.00 56 1013.9
20210304192536 67 4 5.0 11.0 0.00 0.00 0.00 57 1013.9